Weather History for KJAN - December, 2011

Change the Weather History Date:

Friday, December 16, 2011

  Actual Average Record
Temperature  
Mean Temperature 56 °F 47 °F  
Max Temperature 67 °F 58 °F 84 °F (1924)
Min Temperature 45 °F 37 °F 12 °F (1901)
Degree Days  
Heating Degree Days 9 18  
Month to date heating degree days 253 259  
Since 1 July heating degree days 655 667  
Cooling Degree Days 0 0  
Month to date cooling degree days 7 0  
Year to date cooling degree days 2681 2253  
Growing Degree Days 5 (Base 50)    
Moisture  
Dew Point 52 °F    
Average Humidity 93    
Maximum Humidity 100    
Minimum Humidity 86    
Precipitation  
Precipitation 1.54 in 0.17 in 2.00 in (1948)
Month to date precipitation 2.34 2.78  
Year to date precipitation 45.12 51.77  
Sea Level Pressure  
Sea Level Pressure 30.23 in    
Wind  
Wind Speed 9 mph (North)    
Max Wind Speed 17 mph    
Max Gust Speed 22 mph    
Visibility 4 miles    
Events Fog , Rain    
T = Trace of Precipitation, MM = Missing Value Source: NWS Daily Summary

Daily Weather History Graph

Daily Weather History Graph

Search for Another Location

Airport or City:

Trip Planner

Search our weather history database for the weather conditions in past years. The results will help you decide how hot, cold, wet, or windy it might be!

Date:

Astronomy

Dec. 16, 2011 Rise Set
Actual Time 6:54 AM CST 4:57 PM CST
Civil Twilight 6:27 AM CST 5:24 PM CST
Nautical Twilight 5:56 AM CST 5:54 PM CST
Astronomical Twilight 5:26 AM CST 6:24 PM CST
Moon 11:10 PM CST (12/16) 10:58 AM CST (12/16)
Length of Visible Light 10h 56m
Length of Day
10h 02m
Waning Gibbous, 64% of the Moon is Illuminated
Dec 16
Waning Gibbous
Dec 17
Last Quarter
Dec 24
New
Jan 1
First Quarter
Jan 9
Full

Hourly Weather History & Observations

Time (CST) Temp. Windchill Dew Point Humidity Pressure Visibility Wind Dir Wind Speed Gust Speed Precip Events Conditions
12:16 AM 66.2 °F - 64.4 °F 94% 30.10 in 4.0 mi SSE 10.4 mph - 0.04 in Rain Light Rain
12:54 AM 66.0 °F - 64.9 °F 96% 30.07 in 5.0 mi SSE 12.7 mph - 0.06 in Rain Rain
1:19 AM 66.2 °F - 64.4 °F 94% 30.09 in 4.0 mi SSW 15.0 mph 19.6 mph 0.28 in Rain Heavy Rain
1:54 AM 66.0 °F - 64.9 °F 96% 30.09 in 4.0 mi South 8.1 mph - 0.65 in Rain Light Rain
2:54 AM 62.6 °F - 62.6 °F 100% 30.11 in 4.0 mi NNW 9.2 mph - N/A Rain Heavy Rain
3:12 AM 62.6 °F - 60.8 °F 94% 30.12 in 4.0 mi NNW 8.1 mph - 0.13 in Rain Heavy Rain
3:34 AM 59.0 °F - 57.2 °F 94% 30.13 in 4.0 mi North 10.4 mph - 0.30 in Rain Light Rain
3:54 AM 59.0 °F - 57.2 °F 94% 30.14 in 4.0 mi NNW 4.6 mph - N/A Rain Light Rain
4:54 AM 57.9 °F - 57.0 °F 97% 30.13 in 6.0 mi North 8.1 mph - 0.06 in Rain Light Rain
5:35 AM 57.2 °F - 55.4 °F 94% 30.15 in 8.0 mi North 5.8 mph - 0.00 in Rain Light Rain
5:54 AM 57.0 °F - 55.9 °F 96% 30.15 in 5.0 mi North 5.8 mph - 0.01 in Rain Light Rain
6:54 AM 57.0 °F - 55.0 °F 93% 30.18 in 5.0 mi NNW 9.2 mph - 0.03 in Rain Light Rain
7:39 AM 55.4 °F - 53.6 °F 94% 30.20 in 3.0 mi North 9.2 mph - 0.09 in Rain Light Rain
7:54 AM 55.0 °F - 54.0 °F 96% 30.21 in 6.0 mi NNW 9.2 mph - 0.11 in Rain Light Rain
8:26 AM 53.6 °F - 53.6 °F 100% 30.25 in 4.0 mi NNW 16.1 mph - N/A Rain Light Rain
8:54 AM 54.0 °F - 52.0 °F 93% 30.23 in 5.0 mi North 12.7 mph - 0.02 in Rain Light Rain
9:01 AM 53.6 °F - 51.8 °F 94% 30.24 in 6.0 mi North 12.7 mph - 0.00 in   Overcast
9:35 AM 53.6 °F - 51.8 °F 94% 30.24 in 7.0 mi NNE 8.1 mph - 0.00 in Rain Light Rain
9:49 AM 53.6 °F - 51.8 °F 94% 30.24 in 1.8 mi NNE 6.9 mph - 0.00 in Rain Light Rain
9:54 AM 53.1 °F - 52.0 °F 96% 30.25 in 1.5 mi North 8.1 mph - 0.00 in Rain Light Rain
10:04 AM 53.6 °F - 51.8 °F 94% 30.26 in 2.0 mi NNW 6.9 mph - 0.03 in Rain Rain
10:14 AM 53.6 °F - 51.8 °F 94% 30.25 in 2.0 mi East 3.5 mph - 0.07 in Rain Heavy Rain
10:26 AM 53.6 °F - 51.8 °F 94% 30.24 in 3.0 mi ESE 5.8 mph - 0.12 in Rain Light Rain
10:54 AM 55.0 °F - 53.1 °F 93% 30.24 in 7.0 mi North 4.6 mph - 0.13 in Rain Light Rain
11:13 AM 55.4 °F - 53.6 °F 94% 30.25 in 5.0 mi NNW 5.8 mph - 0.01 in Rain Light Rain
11:54 AM 55.0 °F - 53.1 °F 93% 30.23 in 10.0 mi North 6.9 mph - 0.01 in   Overcast
12:54 PM 55.0 °F - 53.1 °F 93% 30.23 in 10.0 mi North 11.5 mph - N/A   Overcast
1:29 PM 53.6 °F - 51.8 °F 94% 30.23 in 4.0 mi NNW 10.4 mph - N/A   Overcast
1:54 PM 53.6 °F - 51.8 °F 94% 30.24 in 9.0 mi NNW 12.7 mph - N/A   Overcast
2:08 PM 51.8 °F - 50.0 °F 94% 30.24 in 1.8 mi NNW 13.8 mph - N/A   Overcast
2:17 PM 51.8 °F - 48.2 °F 88% 30.25 in 1.2 mi NNW 15.0 mph 20.7 mph N/A   Overcast
2:27 PM 50.0 °F - 48.2 °F 94% 30.25 in 0.5 mi NNW 10.4 mph - N/A Fog Fog
2:54 PM 50.0 °F - 48.9 °F 96% 30.25 in 1.0 mi NNW 11.5 mph - N/A   Overcast
3:01 PM 50.0 °F - 48.2 °F 94% 30.25 in 2.0 mi NNW 10.4 mph - N/A   Overcast
3:13 PM 50.0 °F - 48.2 °F 94% 30.26 in 4.0 mi NNW 10.4 mph - N/A   Overcast
3:42 PM 48.2 °F - 46.4 °F 93% 30.27 in 2.5 mi North 15.0 mph - N/A   Overcast
3:47 PM 48.2 °F - 46.4 °F 93% 30.27 in 3.0 mi North 11.5 mph - 0.00 in   Light Drizzle
3:54 PM 48.0 °F - 46.9 °F 96% 30.27 in 3.0 mi NNW 15.0 mph - 0.00 in   Light Drizzle
4:05 PM 48.2 °F - 46.4 °F 93% 30.28 in 2.0 mi North 16.1 mph - 0.00 in   Light Drizzle
4:13 PM 48.2 °F - 46.4 °F 93% 30.28 in 1.5 mi NNW 11.5 mph - 0.00 in   Light Drizzle
4:33 PM 46.4 °F 41.1 °F 46.4 °F 100% 30.28 in 1.5 mi North 11.5 mph - 0.00 in   Overcast
4:54 PM 46.9 °F - 46.0 °F 97% 30.29 in 1.0 mi North 10.4 mph - 0.00 in   Overcast
5:25 PM 48.2 °F - 46.4 °F 93% 30.29 in 2.0 mi North 8.1 mph - N/A   Overcast
5:34 PM 48.2 °F - 46.4 °F 93% 30.29 in 4.0 mi North 6.9 mph - N/A   Overcast
5:54 PM 48.0 °F - 46.9 °F 96% 30.29 in 5.0 mi North 9.2 mph - N/A   Overcast
6:54 PM 48.9 °F - 46.0 °F 90% 30.31 in 8.0 mi North 8.1 mph - N/A   Overcast
7:54 PM 48.9 °F - 46.0 °F 90% 30.32 in 7.0 mi North 9.2 mph - N/A   Overcast
8:54 PM 48.0 °F - 46.0 °F 93% 30.33 in 8.0 mi North 11.5 mph - N/A   Overcast
9:54 PM 48.0 °F - 45.0 °F 89% 30.35 in 6.0 mi NNW 8.1 mph - N/A   Overcast
10:54 PM 46.0 °F 41.9 °F 44.1 °F 93% 30.35 in 4.0 mi NNW 8.1 mph - N/A   Overcast
11:21 PM 44.6 °F 38.8 °F 42.8 °F 93% 30.34 in 4.0 mi North 11.5 mph - N/A   Overcast
11:54 PM 44.6 °F 39.2 °F 42.8 °F 93% 30.35 in 5.0 mi North 10.4 mph - N/A   Overcast